Location: Unspecified
(33.6682°S, 0.0000°E)
Time: 17:05:57
(UTC+00:00)

Vanguard 2 Rocket - Pass Details

Date: 22 June 2019
Orbit: 554 x 3326 km, 32.9° (Epoch: 21 July)

Event Time Altitude Azimuth Distance (km) Brightness Sun altitude
Rises 04:28:58 0° 352° (N) 7,288 11.5 -31.5°
Reaches altitude 10° 04:37:57 10° 12° (NNE) 6,201 11.3 -29.6°
Maximum altitude 04:46:24 14° 38° (NE) 5,518 11.4 -27.9°
Drops below altitude 10° 04:53:53 10° 65° (ENE) 5,446 11.8 -26.4°
Sets 05:00:28 0° 86° (E) 5,915 12.4 -25.0°
